Location: Estes Park
(40.3770°N, 105.5210°W)
Time: 11:06:53
(UTC-06:00)

Tiangong 1 - Pass Details

Date: 09 October 2017
Orbit: 294 x 321 km, 42.8° (Epoch: 17 October)

Event Time Altitude Azimuth Distance (km) Brightness Sun altitude
Rises 20:13:32 0° 280° (W) 2,028 6.3 -20.3°
Reaches altitude 10° 20:15:33 10° 287° (WNW) 1,194 4.7 -20.7°
Enters shadow 20:17:14 31° 308° (NW) 575 2.5 -21.0°
